Location: Naloco
(16.5478°S, 37.1017°E)
Time: 02:28:00
(UTC+00:00)

YAOGAN 1 - Pass Details

Date: 13 August 2020
Orbit: 618 x 620 km, 97.9° (Epoch: 23 September)

Event Time Altitude Azimuth Distance (km) Brightness Sun altitude
Exits shadow 17:28:21 21° 219° (SW) 1,404 4.6 -30.4°
Maximum altitude 17:30:03 27° 255° (WSW) 1,190 4.5 -30.8°
Drops below altitude 10° 17:33:43 10° 313° (NW) 1,982 5.7 -31.7°
Sets 17:36:08 0° 325° (NW) 2,881 6.5 -32.3°
